Total_Precipitation_Accumulation
3.04 3.14 3.16 3.26 3.05 2.91 2.85 2.56 2.25 2.30 2.40 2.32 2.03 1.94 1.98 1.99 2.13 2.39 2.68 2.59 2.47 2.62 2.94 3.21 3.44 3.49 3.44 3.46 3.43 3.37 3.28 3.20 3.14 2.92 2.66 2.41 2.23 2.18 2.22 2.33 2.34 2.25 2.19
3.36 3.40 3.47 3.46 3.25 3.19 3.13 2.87 2.66 2.77 2.68 2.58 2.30 2.18 2.17 2.21 2.29 2.48 2.71 2.72 2.36 2.20 2.51 3.01 3.37 3.61 3.69 3.72 3.55 3.38 3.34 3.30 3.26 3.06 2.84 2.60 2.40 2.29 2.22 2.22 2.29 2.27 2.18
3.64 3.66 3.74 3.62 3.40 3.32 3.33 3.26 3.13 3.07 2.91 2.64 2.50 2.49 2.45 2.32 2.31 2.54 2.73 2.76 2.55 2.37 2.45 2.65 2.91 3.27 3.71 3.93 3.82 3.65 3.51 3.46 3.37 3.21 3.03 2.82 2.59 2.40 2.28 2.21 2.20 2.21 2.19
3.56 3.79 3.84 3.63 3.43 3.33 3.45 3.61 3.45 3.31 3.22 3.09 2.86 2.61 2.52 2.50 2.40 2.44 2.48 2.55 2.70 2.59 2.58 2.53 2.65 2.91 3.30 3.64 3.90 3.96 3.81 3.65 3.51 3.37 3.23 3.07 2.90 2.67 2.45 2.35 2.28 2.22 2.20
3.64 3.88 3.97 3.93 3.62 3.57 3.69 3.57 3.77 3.59 3.51 3.27 2.85 2.70 2.48 2.32 2.34 2.35 2.45 2.39 2.41 2.45 2.48 2.48 2.60 2.69 2.95 3.31 3.61 3.80 3.85 3.78 3.56 3.33 3.27 3.22 3.05 2.86 2.66 2.50 2.37 2.27 2.19
3.76 3.99 3.98 4.05 3.90 3.90 4.10 4.09 4.10 3.87 3.53 3.31 2.89 2.69 2.44 2.20 2.10 2.18 2.16 2.17 2.11 2.07 2.14 2.23 2.42 2.42 2.59 2.84 3.23 3.55 3.98 4.07 3.82 3.59 3.46 3.34 3.10 2.84 2.64 2.56 2.49 2.42 2.34
4.37 4.59 4.39 4.34 4.13 4.05 4.11 4.11 3.98 3.86 3.67 3.57 3.47 3.10 2.60 2.19 2.00 1.88 1.91 1.98 1.94 1.86 1.95 2.10 2.16 2.18 2.25 2.35 2.53 2.91 3.61 3.97 3.90 3.75 3.69 3.54 3.26 2.97 2.74 2.66 2.64 2.60 2.50
4.98 4.90 4.84 4.51 4.30 4.19 4.05 3.96 3.85 3.76 3.53 3.49 3.56 3.50 3.04 2.66 2.16 1.71 1.81 1.85 1.85 1.88 1.90 1.80 1.84 1.84 1.80 1.98 2.07 2.39 2.84 3.15 3.52 3.78 3.84 3.56 3.34 3.14 2.98 2.84 2.79 2.74 2.69
4.80 4.70 4.61 4.42 4.30 4.12 3.96 3.90 3.83 3.76 3.58 3.50 3.54 3.70 3.48 2.94 2.40 1.99 1.80 1.76 1.80 1.86 1.84 1.77 1.71 1.70 1.70 1.83 1.89 2.09 2.40 2.52 2.87 3.25 3.55 3.38 3.23 3.24 3.19 3.14 3.09 3.05 2.97
4.49 4.34 4.40 4.32 4.19 3.97 3.81 3.50 3.49 3.58 3.72 3.52 3.40 3.17 3.02 2.77 2.66 2.44 2.16 1.96 1.84 1.80 1.77 1.71 1.61 1.67 1.73 1.88 2.02 2.02 2.09 2.14 2.35 2.64 2.83 2.88 2.91 3.02 3.13 3.07 3.11 3.19 3.21
4.17 3.90 3.93 3.87 3.69 3.49 3.36 3.19 3.16 3.21 3.31 3.29 3.26 3.13 2.99 2.80 2.57 2.50 2.36 2.14 2.00 1.83 1.74 1.74 1.71 1.72 1.78 1.82 1.90 1.91 1.95 1.96 2.05 2.18 2.28 2.40 2.56 2.76 2.92 3.01 3.11 3.25 3.39
3.94 3.64 3.32 3.27 3.22 3.06 2.87 2.82 2.81 2.78 2.86 2.92 3.00 2.92 2.77 2.68 2.60 2.60 2.47 2.27 2.17 2.00 1.87 1.84 1.79 1.73 1.76 1.71 1.62 1.78 1.74 1.74 1.79 1.90 1.97 2.02 2.15 2.33 2.50 2.69 2.98 3.19 3.32
3.42 3.16 2.94 2.83 2.76 2.70 2.58 2.52 2.52 2.40 2.35 2.44 2.43 2.52 2.54 2.43 2.32 2.41 2.51 2.39 2.19 2.05 1.97 1.85 1.70 1.64 1.61 1.65 1.69 1.69 1.55 1.51 1.47 1.50 1.59 1.71 1.86 2.01 2.09 2.24 2.44 2.72 2.95
2.89 2.67 2.57 2.37 2.17 2.05 1.99 2.09 2.15 2.11 2.08 2.06 2.00 2.21 2.28 2.20 2.16 2.19 2.28 2.48 2.43 2.21 2.10 1.90 1.72 1.63 1.59 1.61 1.69 1.56 1.43 1.41 1.35 1.35 1.39 1.45 1.59 1.80 1.89 1.91 1.88 1.97 2.14
2.31 2.22 2.11 2.03 1.95 1.84 1.78 1.79 1.83 1.92 1.93 1.86 1.86 1.98 1.97 1.91 1.92 1.97 2.07 2.27 2.51 2.44 2.23 1.96 1.85 1.75 1.71 1.71 1.81 1.54 1.50 1.46 1.41 1.43 1.43 1.46 1.53 1.72 1.80 1.80 1.67 1.58 1.57
1.99 1.86 1.80 1.75 1.76 1.71 1.68 1.75 1.72 1.77 1.86 1.76 1.72 1.72 1.68 1.63 1.73 1.75 1.84 1.96 2.16 2.35 2.23 1.83 1.74 1.75 1.75 1.65 1.87 1.66 1.58 1.55 1.48 1.64 1.75 1.69 1.66 1.83 1.98 2.02 1.83 1.66 1.61
1.76 1.66 1.58 1.54 1.51 1.53 1.54 1.57 1.52 1.49 1.49 1.45 1.36 1.35 1.37 1.45 1.59 1.60 1.62 1.76 1.97 2.17 2.25 1.86 1.69 1.80 1.93 1.87 1.91 1.82 1.68 1.67 1.65 1.99 2.13 2.32 2.09 1.98 2.07 2.11 2.03 1.79 1.63
1.58 1.53 1.42 1.37 1.33 1.28 1.26 1.25 1.26 1.28 1.28 1.26 1.26 1.31 1.31 1.37 1.49 1.52 1.58 1.64 1.80 2.06 2.23 2.15 1.91 1.92 1.97 1.94 2.01 1.98 1.77 1.63 1.66 2.08 2.30 2.59 2.53 2.25 2.24 2.14 2.03 1.85 1.69
1.42 1.35 1.30 1.29 1.24 1.25 1.17 1.10 1.10 1.16 1.16 1.13 1.18 1.25 1.32 1.55 1.57 1.55 1.59 1.62 1.72 1.85 2.17 2.21 2.02 2.02 2.06 2.08 2.25 2.09 1.91 1.89 1.60 1.88 2.28 2.58 2.67 2.67 2.72 2.59 2.34 2.00 1.75
1.36 1.31 1.28 1.20 1.16 1.16 1.16 1.11 1.08 1.12 1.14 1.12 1.17 1.25 1.33 1.50 1.59 1.65 1.63 1.69 1.75 1.91 2.09 2.21 2.15 2.13 2.19 2.24 2.28 2.22 2.08 1.94 1.75 1.67 2.11 2.52 2.81 2.86 3.00 3.09 2.82 2.37 1.99
1.26 1.26 1.24 1.18 1.17 1.14 1.07 1.08 1.07 1.09 1.17 1.18 1.13 1.14 1.20 1.30 1.42 1.43 1.33 1.45 1.64 1.90 1.97 2.16 2.19 2.21 2.19 2.28 2.17 1.96 1.91 1.88 1.73 1.62 1.82 2.16 2.82 3.13 3.16 3.24 3.14 2.65 2.21
1.33 1.30 1.25 1.19 1.13 0.91 1.00 1.04 1.03 1.10 1.16 1.16 1.14 1.13 1.08 1.05 1.03 1.03 1.08 1.16 1.34 1.63 1.99 2.24 2.18 2.16 2.06 2.00 2.01 1.95 1.98 2.01 1.95 1.65 1.61 1.84 2.38 3.15 3.35 3.26 3.20 2.61 2.09
1.35 1.27 1.22 1.20 1.14 1.01 1.00 0.95 0.98 1.10 1.20 1.26 1.30 1.27 1.00 0.86 0.97 0.99 1.04 1.10 1.22 1.40 1.72 2.12 2.22 2.02 1.98 1.93 2.01 2.02 2.09 2.13 2.00 1.71 1.77 1.97 2.28 2.92 3.05 3.00 2.92 2.29 1.84
1.35 1.33 1.29 1.26 1.24 1.10 1.02 0.94 0.98 1.04 1.18 1.20 1.20 1.22 1.21 1.11 1.03 1.11 1.17 1.24 1.34 1.45 1.55 1.66 2.01 1.86 1.67 1.73 1.87 1.94 2.07 2.12 2.00 1.81 1.86 2.12 2.31 2.74 2.68 2.72 2.60 2.11 1.73
1.33 1.28 1.26 1.28 1.34 1.27 1.11 0.99 0.92 0.94 1.07 1.10 1.06 1.04 1.01 1.05 1.15 1.31 1.41 1.62 1.72 1.81 1.67 1.81 1.96 1.90 1.76 1.74 1.69 1.84 2.16 2.24 2.09 1.91 1.91 2.21 2.33 2.41 2.48 2.51 2.23 2.02 1.71
1.32 1.27 1.25 1.29 1.28 1.18 1.01 0.86 0.82 0.83 0.98 1.04 1.10 1.07 0.96 0.91 1.06 1.24 1.46 1.79 1.94 2.01 1.85 1.93 2.17 2.18 1.99 2.01 2.02 1.97 2.22 2.35 2.25 2.14 1.89 2.02 2.19 2.21 2.38 2.27 2.08 1.92 1.82